This is the latest recevied weather packets stored in our database for station/object KF4UQS-14. If no packets are shown the sender has not sent any weather packets the latest 10 day(s).
| Time | Temp. | Humidity | Pressure | Rain* | Wind** | Luminosity | Snow |
|---|---|---|---|---|---|---|---|
| 1777593207 | 15° C | 80% | 1009.6 hPa | 0 mm | - | 2 W/m² | - |
| 1777592906 | 15° C | 81% | 1009.4 hPa | 0 mm | - | 4 W/m² | - |
| 1777592602 | 15° C | 82% | 1009.5 hPa | 0 mm | - | 7 W/m² | - |
| 1777592298 | 15.56° C | 80% | 1009.3 hPa | 0 mm | - | 9 W/m² | - |
| 1777591994 | 16.11° C | 79% | 1009.3 hPa | 0 mm | - | 12 W/m² | - |
| 1777591691 | 16.67° C | 76% | 1009 hPa | 0 mm | - | 15 W/m² | - |
| 1777591386 | 17.22° C | 74% | 1009.3 hPa | 0 mm | - | 18 W/m² | - |
| 1777591082 | 17.78° C | 71% | 1009.2 hPa | 0 mm | - | 23 W/m² | - |
| 1777590778 | 17.78° C | 70% | 1009.1 hPa | 0 mm | - | 30 W/m² | - |
| 1777590474 | 17.78° C | 70% | 1009 hPa | 0 mm | - | 38 W/m² | - |
| 1777590171 | 17.78° C | 69% | 1008.9 hPa | 0 mm | - | 46 W/m² | - |
| 1777589867 | 18.33° C | 69% | 1008.9 hPa | 0 mm | - | 54 W/m² | - |
| 1777589563 | 18.33° C | 68% | 1009 hPa | 0 mm | - | 63 W/m² | - |
| 1777589261 | 18.33° C | 69% | 1009.1 hPa | 0 mm | - | 74 W/m² | - |
| 1777588959 | 18.33° C | 67% | 1009.1 hPa | 0 mm | - | 72 W/m² | - |
| 1777588649 | 18.33° C | 67% | 1009.1 hPa | 0 mm | - | 91 W/m² | - |
| 1777588345 | 18.33° C | 68% | 1009.2 hPa | 0 mm | - | 102 W/m² | - |
| 1777588040 | 18.33° C | 67% | 1009.1 hPa | 0 mm | - | 57 W/m² | - |
| 1777587736 | 18.89° C | 66% | 1009.1 hPa | 0 mm | - | 62 W/m² | - |
| 1777587430 | 18.89° C | 65% | 1009.3 hPa | 0 mm | - | 140 W/m² | - |
| 1777587127 | 19.44° C | 64% | 1009.1 hPa | 0 mm | - | 155 W/m² | - |
| 1777586822 | 18.89° C | 63% | 1008.8 hPa | 0 mm | - | 174 W/m² | - |
| 1777586518 | 18.89° C | 64% | 1008.9 hPa | 0 mm | - | 185 W/m² | - |
| 1777586214 | 19.44° C | 62% | 1008.9 hPa | 0 mm | - | 201 W/m² | - |
| 1777585912 | 18.89° C | 63% | 1008.9 hPa | 0 mm | - | 218 W/m² | - |
* Rain latest hour (hover to see other rain measurements)
** Current wind speed in m/s (hover to see current wind gust speed)